When you browse on this site, cookies collect data to enhance your experience and personalize the content and advertising you see.
Visit our Privacy Policy to learn more. By continuing to use the site, you agree to this use of cookies and data.
  • In Portugal
  • List of Countries
  • For 7 days
  • Water Temperature
  • Satellite Maps
  • Weather Map
  • Weather Widgets
  • user-avatar
    Login

    Hourly Weather Nadżaf

    Today, 20 November, Tuesday

    Time Temperature Precipitation Wind Pressure Humidity
    00:00 +19°C° 0 mm 2 mps 755 mmHg 51%
    01:00 +19°C° 0 mm 3 mps 755 mmHg 52%
    02:00 +19°C° 0 mm 3 mps 755 mmHg 53%
    03:00 +18°C° 0 mm 3 mps 755 mmHg 53%
    04:00 +18°C° 0 mm 3 mps 755 mmHg 54%
    05:00 +18°C° 0 mm 4 mps 756 mmHg 54%
    06:00 +17°C° 0 mm 4 mps 756 mmHg 55%
    07:00 +18°C° 0 mm 4 mps 756 mmHg 51%
    08:00 +19°C° 0 mm 4 mps 756 mmHg 48%
    09:00 +20°C° 0 mm 5 mps 756 mmHg 45%
    10:00 +21°C° 0 mm 5 mps 756 mmHg 41%
    11:00 +22°C° 0 mm 5 mps 756 mmHg 37%
    12:00 +23°C° 0 mm 5 mps 756 mmHg 34%
    13:00 +23°C° 0 mm 5 mps 756 mmHg 32%
    14:00 +25°C° 0 mm 5 mps 755 mmHg 31%
    15:00 +25°C° 0 mm 5 mps 755 mmHg 30%
    16:00 +23°C° 0 mm 4 mps 755 mmHg 33%
    17:00 +22°C° 0 mm 3 mps 755 mmHg 35%
    18:00 +21°C° 0 mm 3 mps 755 mmHg 37%
    19:00 +21°C° 0 mm 2 mps 755 mmHg 38%
    20:00 +21°C° 0 mm 2 mps 755 mmHg 39%
    21:00 +20°C° 0 mm 2 mps 755 mmHg 40%
    22:00 +20°C° 0 mm 3 mps 755 mmHg 40%
    23:00 +20°C° 0 mm 3 mps 755 mmHg 40%

    Tomorrow, 21 November, Wednesday

    Time Temperature Precipitation Wind Pressure Humidity
    00:00 +19°C° 0 mm 3 mps 755 mmHg 40%
    01:00 +19°C° 0 mm 3 mps 755 mmHg 39%
    02:00 +19°C° 0 mm 4 mps 755 mmHg 39%
    03:00 +18°C° 0 mm 4 mps 755 mmHg 39%
    04:00 +18°C° 0 mm 4 mps 755 mmHg 39%
    05:00 +18°C° 0 mm 4 mps 755 mmHg 39%
    06:00 +18°C° 0 mm 4 mps 755 mmHg 39%
    07:00 +19°C° 0 mm 4 mps 755 mmHg 37%
    08:00 +20°C° 0 mm 4 mps 755 mmHg 35%
    09:00 +21°C° 0 mm 4 mps 755 mmHg 33%
    10:00 +22°C° 0 mm 4 mps 755 mmHg 30%
    11:00 +23°C° 0 mm 4 mps 755 mmHg 27%
    12:00 +26°C° 0 mm 4 mps 754 mmHg 25%
    13:00 +26°C° 0 mm 4 mps 754 mmHg 24%
    14:00 +26°C° 0 mm 3 mps 753 mmHg 23%
    15:00 +27°C° 0 mm 3 mps 753 mmHg 22%
    16:00 +26°C° 0 mm 2 mps 753 mmHg 25%
    17:00 +24°C° 0 mm 2 mps 753 mmHg 27%
    18:00 +23°C° 0 mm 1 mps 753 mmHg 30%
    19:00 +23°C° 0 mm 2 mps 753 mmHg 31%
    20:00 +23°C° 0 mm 2 mps 753 mmHg 31%
    21:00 +21°C° 0 mm 2 mps 753 mmHg 32%
    22:00 +21°C° 0 mm 3 mps 753 mmHg 32%
    23:00 +21°C° 0 mm 3 mps 753 mmHg 32%

    Day after tomorrow, 22 November, Thursday

    Time Temperature Precipitation Wind Pressure Humidity
    00:00 +21°C° 0 mm 3 mps 753 mmHg 33%
    01:00 +21°C° 0 mm 3 mps 752 mmHg 33%
    02:00 +20°C° 0 mm 3 mps 752 mmHg 34%
    03:00 +20°C° 0 mm 3 mps 752 mmHg 35%
    04:00 +20°C° 0 mm 3 mps 752 mmHg 35%
    05:00 +19°C° 0 mm 3 mps 752 mmHg 36%
    06:00 +19°C° 0 mm 3 mps 752 mmHg 37%
    07:00 +20°C° 0 mm 3 mps 752 mmHg 37%
    08:00 +21°C° 0 mm 4 mps 752 mmHg 37%
    09:00 +21°C° 0 mm 4 mps 753 mmHg 37%
    10:00 +22°C° 0 mm 4 mps 752 mmHg 35%
    11:00 +25°C° 0 mm 4 mps 752 mmHg 33%
    12:00 +26°C° 0 mm 4 mps 751 mmHg 32%
    13:00 +26°C° 0 mm 4 mps 751 mmHg 31%
    14:00 +26°C° 0 mm 4 mps 750 mmHg 31%
    15:00 +27°C° 0 mm 3 mps 750 mmHg 30%
    16:00 +26°C° 0 mm 3 mps 750 mmHg 32%
    17:00 +25°C° 0 mm 3 mps 750 mmHg 34%
    18:00 +24°C° 0 mm 2 mps 750 mmHg 36%
    19:00 +24°C° 0 mm 3 mps 750 mmHg 36%
    20:00 +24°C° 0 mm 3 mps 751 mmHg 37%
    21:00 +22°C° 0 mm 4 mps 751 mmHg 37%
    22:00 +22°C° 0 mm 4 mps 751 mmHg 38%
    23:00 +22°C° 0 mm 4 mps 751 mmHg 40%

    23 November, Friday

    Time Temperature Precipitation Wind Pressure Humidity
    00:00 +22°C° 0 mm 4 mps 751 mmHg 41%
    01:00 +21°C° 0 mm 4 mps 750 mmHg 44%
    02:00 +21°C° 0 mm 4 mps 750 mmHg 46%
    03:00 +21°C° 0 mm 4 mps 750 mmHg 49%
    04:00 +20°C° 0 mm 4 mps 750 mmHg 54%
    05:00 +20°C° 0 mm 4 mps 750 mmHg 58%
    06:00 +19°C° 0 mm 3 mps 750 mmHg 63%
    07:00 +19°C° 0.1 mm 4 mps 750 mmHg 66%
    08:00 +19°C° 0.1 mm 5 mps 751 mmHg 70%
    09:00 +19°C° 0.1 mm 5 mps 751 mmHg 73%
    10:00 +19°C° 0.5 mm 6 mps 751 mmHg 74%
    11:00 +19°C° 0.5 mm 6 mps 750 mmHg 76%
    12:00 +19°C° 0.5 mm 6 mps 750 mmHg 77%
    13:00 +19°C° 0.5 mm 6 mps 750 mmHg 78%
    14:00 +17°C° 0.5 mm 6 mps 750 mmHg 79%
    15:00 +17°C° 0.5 mm 6 mps 749 mmHg 81%
    16:00 +17°C° 0.1 mm 6 mps 750 mmHg 81%
    17:00 +16°C° 0.1 mm 6 mps 750 mmHg 81%
    18:00 +16°C° 0.1 mm 6 mps 750 mmHg 82%
    19:00 +16°C° 0 mm 5 mps 750 mmHg 81%
    20:00 +15°C° 0 mm 5 mps 751 mmHg 81%
    21:00 +15°C° 0 mm 5 mps 751 mmHg 80%
    22:00 +15°C° 0 mm 4 mps 751 mmHg 81%
    23:00 +15°C° 0 mm 4 mps 751 mmHg 82%

    24 November, Saturday

    Time Temperature Precipitation Wind Pressure Humidity
    00:00 +14°C° 0 mm 3 mps 751 mmHg 83%
    01:00 +14°C° 0 mm 3 mps 751 mmHg 84%
    02:00 +14°C° 0 mm 3 mps 751 mmHg 85%
    03:00 +14°C° 0 mm 3 mps 751 mmHg 86%
    04:00 +15°C° 0 mm 2 mps 751 mmHg 88%
    05:00 +15°C° 0 mm 2 mps 752 mmHg 89%
    06:00 +14°C° 0 mm 2 mps 752 mmHg 90%
    07:00 +15°C° 0 mm 2 mps 752 mmHg 88%
    08:00 +16°C° 0 mm 2 mps 753 mmHg 85%
    09:00 +16°C° 0 mm 3 mps 753 mmHg 83%
    10:00 +17°C° 0 mm 3 mps 753 mmHg 80%
    11:00 +18°C° 0 mm 3 mps 753 mmHg 77%
    12:00 +19°C° 0 mm 3 mps 753 mmHg 74%
    13:00 +19°C° 0 mm 3 mps 752 mmHg 72%
    14:00 +20°C° 0 mm 3 mps 752 mmHg 69%
    15:00 +20°C° 0 mm 4 mps 752 mmHg 67%
    16:00 +20°C° 0.1 mm 3 mps 752 mmHg 69%
    17:00 +20°C° 0.1 mm 3 mps 752 mmHg 71%
    18:00 +19°C° 0.1 mm 2 mps 752 mmHg 73%
    19:00 +19°C° 0.1 mm 2 mps 752 mmHg 75%
    20:00 +20°C° 0.1 mm 1 mps 752 mmHg 76%
    21:00 +20°C° 0.1 mm 1 mps 752 mmHg 78%
    22:00 +19°C° 0.2 mm 1 mps 752 mmHg 79%
    23:00 +19°C° 0.2 mm 1 mps 752 mmHg 80%

    25 November, Sunday

    Time Temperature Precipitation Wind Pressure Humidity
    00:00 +18°C° 0.2 mm 2 mps 751 mmHg 81%
    01:00 +18°C° 0.2 mm 2 mps 751 mmHg 82%
    02:00 +17°C° 0.2 mm 2 mps 751 mmHg 84%
    03:00 +17°C° 0.2 mm 2 mps 751 mmHg 85%
    04:00 +17°C° 0.2 mm 2 mps 751 mmHg 85%
    05:00 +17°C° 0.2 mm 3 mps 751 mmHg 86%
    06:00 +16°C° 0.2 mm 3 mps 751 mmHg 86%
    07:00 +17°C° 0 mm 3 mps 751 mmHg 83%
    08:00 +18°C° 0 mm 3 mps 752 mmHg 79%
    09:00 +18°C° 0 mm 4 mps 752 mmHg 75%
    10:00 +19°C° 0 mm 4 mps 752 mmHg 67%
    11:00 +21°C° 0 mm 4 mps 752 mmHg 59%
    12:00 +22°C° 0 mm 4 mps 752 mmHg 51%
    13:00 +22°C° 0 mm 4 mps 751 mmHg 48%
    14:00 +22°C° 0 mm 3 mps 751 mmHg 45%
    15:00 +24°C° 0 mm 3 mps 751 mmHg 42%
    16:00 +22°C° 0 mm 3 mps 751 mmHg 45%
    17:00 +21°C° 0 mm 3 mps 752 mmHg 47%
    18:00 +21°C° 0 mm 2 mps 752 mmHg 50%
    19:00 +20°C° 0 mm 2 mps 752 mmHg 52%
    20:00 +20°C° 0 mm 2 mps 753 mmHg 54%
    21:00 +19°C° 0 mm 2 mps 753 mmHg 56%
    22:00 +19°C° 0 mm 2 mps 753 mmHg 58%
    23:00 +18°C° 0 mm 2 mps 753 mmHg 59%
    Show more